| time (UTC) | temp F | wind direction | speed knots | gust knots | rain 1hr in | rain 24hr in | rain mn in | humidity % | barometer mb |
| 20260507023036 | 45 | 297 | 0.0 | 0.0 | 0.00 | 0.25 | 0.17 | 81 | 1016.5 |
| 20260507022535 | 45 | 297 | 0.0 | 0.0 | 0.00 | 0.25 | 0.17 | 80 | 1016.6 |
| 20260507022038 | 46 | 297 | 0.0 | 0.0 | 0.00 | 0.25 | 0.17 | 80 | 1016.6 |
| 20260507021538 | 46 | 297 | 0.0 | 0.0 | 0.00 | 0.25 | 0.17 | 80 | 1016.5 |
| 20260507021033 | 46 | 297 | 0.0 | 0.0 | 0.00 | 0.25 | 0.17 | 79 | 1016.4 |
| 20260507020533 | 47 | 297 | 0.0 | 0.0 | 0.00 | 0.25 | 0.17 | 78 | 1016.2 |
| 20260507020046 | 47 | 297 | 0.0 | 0.0 | 0.00 | 0.25 | 0.17 | 77 | 1016.3 |
| 20260507015532 | 47 | 297 | 0.0 | 0.0 | 0.00 | 0.37 | 0.17 | 77 | 1016.2 |
| 20260507015032 | 48 | 297 | 0.0 | 0.0 | 0.00 | 0.37 | 0.17 | 74 | 1016.1 |
| 20260507014535 | 48 | 297 | 0.0 | 0.0 | 0.00 | 0.37 | 0.17 | 73 | 1016.2 |
| 20260507014032 | 48 | 297 | 0.0 | 0.0 | 0.00 | 0.37 | 0.17 | 71 | 1016.1 |
| 20260507013631 | 49 | 297 | 0.0 | 0.0 | 0.00 | 0.37 | 0.17 | 70 | 1016.1 |
| 20260507013032 | 49 | 297 | 0.0 | 0.0 | 0.00 | 0.37 | 0.17 | 67 | 1016.2 |
| 20260507012533 | 49 | 297 | 0.0 | 0.0 | 0.00 | 0.37 | 0.17 | 66 | 1016.2 |
| 20260507012031 | 49 | 297 | 0.0 | 0.0 | 0.00 | 0.37 | 0.17 | 65 | 1016.2 |
| 20260507011542 | 50 | 297 | 0.0 | 0.0 | 0.00 | 0.37 | 0.17 | 64 | 1016.0 |
| 20260507011030 | 50 | 297 | 0.0 | 0.0 | 0.00 | 0.37 | 0.17 | 64 | 1016.0 |
| 20260507010530 | 50 | 298 | 0.0 | 0.0 | 0.00 | 0.37 | 0.17 | 64 | 1016.0 |
| 20260507010034 | 50 | 298 | 0.0 | 0.0 | 0.00 | 0.37 | 0.17 | 64 | 1015.8 |
| 20260507005528 | 50 | 289 | 0.0 | 0.0 | 0.00 | 0.61 | 0.17 | 63 | 1015.8 |
| 20260507005028 | 51 | 290 | 0.0 | 0.0 | 0.00 | 0.61 | 0.17 | 62 | 1015.7 |
| 20260507004528 | 51 | 294 | 0.0 | 0.0 | 0.00 | 0.61 | 0.17 | 62 | 1015.7 |
| 20260507004028 | 51 | 312 | 0.0 | 0.0 | 0.00 | 0.61 | 0.17 | 62 | 1015.6 |
| 20260507003528 | 51 | 311 | 0.0 | 0.0 | 0.00 | 0.61 | 0.17 | 61 | 1015.5 |
| 20260507003028 | 51 | 312 | 0.0 | 0.0 | 0.00 | 0.61 | 0.17 | 63 | 1015.5 |
| 20260507002528 | 51 | 312 | 0.0 | 0.0 | 0.00 | 0.61 | 0.17 | 62 | 1015.5 |
| 20260507002028 | 51 | 312 | 0.0 | 0.0 | 0.00 | 0.61 | 0.17 | 61 | 1015.4 |
| 20260507001600 | 51 | 313 | 0.0 | 0.0 | 0.00 | 0.61 | 0.17 | 61 | 1015.4 |
| 20260507001031 | 52 | 312 | 0.0 | 0.0 | 0.00 | 0.61 | 0.17 | 61 | 1015.4 |
| 20260507000527 | 52 | 304 | 0.0 | 0.0 | 0.00 | 0.61 | 0.17 | 60 | 1015.5 |
| 20260507000032 | 52 | 312 | 0.0 | 0.0 | 0.00 | 0.61 | 0.17 | 59 | 1015.4 |
| 20260506235527 | 52 | 268 | 0.0 | 0.0 | 0.00 | 0.74 | 0.17 | 60 | 1015.4 |
| 20260506235027 | 52 | 317 | 0.0 | 0.9 | 0.00 | 0.74 | 0.17 | 60 | 1015.3 |
| 20260506234527 | 52 | 306 | 0.0 | 0.9 | 0.00 | 0.74 | 0.17 | 59 | 1015.2 |
| 20260506234027 | 52 | 305 | 0.0 | 0.9 | 0.00 | 0.74 | 0.17 | 59 | 1015.2 |
| 20260506233527 | 52 | 285 | 0.0 | 0.9 | 0.00 | 0.74 | 0.17 | 59 | 1015.2 |
| 20260506233027 | 52 | 263 | 0.0 | 0.0 | 0.00 | 0.74 | 0.17 | 60 | 1015.2 |
| 20260506232525 | 52 | 319 | 0.0 | 0.0 | 0.00 | 0.74 | 0.17 | 59 | 1015.3 |
| 20260506232025 | 52 | 269 | 0.0 | 0.0 | 0.00 | 0.74 | 0.17 | 61 | 1015.4 |
| 20260506231526 | 52 | 306 | 0.0 | 0.0 | 0.00 | 0.74 | 0.17 | 61 | 1015.3 |
| 20260506231026 | 52 | 310 | 0.0 | 0.0 | 0.00 | 0.74 | 0.17 | 58 | 1015.4 |
| 20260506230528 | 52 | 327 | 0.0 | 0.0 | 0.00 | 0.74 | 0.17 | 58 | 1015.4 |
| 20260506230038 | 52 | 327 | 0.0 | 0.0 | 0.00 | 0.74 | 0.17 | 57 | 1015.6 |
| 20260506225525 | 52 | 321 | 0.0 | 0.0 | 0.00 | 0.76 | 0.17 | 58 | 1015.7 |
| 20260506225025 | 52 | 291 | 0.0 | 0.0 | 0.00 | 0.76 | 0.17 | 58 | 1015.7 |
| 20260506224525 | 53 | 279 | 0.0 | 0.0 | 0.00 | 0.76 | 0.17 | 58 | 1015.8 |
| 20260506224024 | 53 | 313 | 0.0 | 0.0 | 0.00 | 0.76 | 0.17 | 58 | 1015.7 |
| 20260506223523 | 53 | 284 | 0.0 | 0.0 | 0.00 | 0.76 | 0.17 | 59 | 1015.7 |
| 20260506223029 | 53 | 355 | 0.0 | 0.0 | 0.00 | 0.76 | 0.17 | 57 | 1015.6 |
| 20260506222525 | 53 | 256 | 0.0 | 0.0 | 0.00 | 0.76 | 0.17 | 57 | 1015.5 |
| 20260506222022 | 53 | 296 | 0.0 | 0.0 | 0.00 | 0.76 | 0.17 | 56 | 1015.4 |
| 20260506221521 | 53 | 309 | 0.0 | 0.0 | 0.00 | 0.76 | 0.17 | 56 | 1015.4 |
| 20260506221021 | 53 | 318 | 0.0 | 0.0 | 0.00 | 0.76 | 0.17 | 55 | 1015.4 |
| 20260506220521 | 53 | 278 | 0.0 | 0.0 | 0.00 | 0.76 | 0.17 | 57 | 1015.4 |
| 20260506220021 | 53 | 311 | 0.0 | 0.0 | 0.00 | 0.76 | 0.17 | 55 | 1015.4 |
| 20260506215520 | 53 | 284 | 0.0 | 0.0 | 0.00 | 0.82 | 0.17 | 56 | 1015.3 |
| 20260506215020 | 53 | 250 | 0.0 | 0.0 | 0.00 | 0.82 | 0.17 | 55 | 1015.3 |
| 20260506214522 | 53 | 308 | 0.0 | 0.0 | 0.00 | 0.82 | 0.17 | 55 | 1015.3 |
| 20260506214019 | 53 | 283 | 0.0 | 0.9 | 0.00 | 0.82 | 0.17 | 53 | 1015.3 |
| 20260506213521 | 53 | 315 | 0.0 | 0.9 | 0.00 | 0.82 | 0.17 | 55 | 1015.0 |
| 20260506213018 | 53 | 335 | 0.0 | 1.7 | 0.00 | 0.82 | 0.17 | 56 | 1014.9 |
| 20260506212518 | 53 | 342 | 0.0 | 1.7 | 0.00 | 0.82 | 0.17 | 54 | 1014.8 |
| 20260506212017 | 53 | 294 | 0.0 | 1.7 | 0.00 | 0.82 | 0.17 | 52 | 1014.9 |
| 20260506211521 | 53 | 295 | 0.0 | 0.9 | 0.00 | 0.82 | 0.17 | 55 | 1014.9 |
| 20260506211017 | 53 | 311 | 0.0 | 0.9 | 0.00 | 0.82 | 0.17 | 55 | 1014.9 |
| 20260506210522 | 53 | 323 | 0.0 | 0.0 | 0.00 | 0.82 | 0.17 | 55 | 1014.9 |
| 20260506210036 | 53 | 281 | 0.0 | 6.1 | 0.00 | 0.82 | 0.17 | 54 | 1015.0 |
| 20260506205515 | 53 | 287 | 0.0 | 6.1 | 0.00 | 0.89 | 0.17 | 54 | 1014.9 |
| 20260506205019 | 53 | 300 | 0.0 | 1.7 | 0.00 | 0.89 | 0.17 | 54 | 1014.8 |
| 20260506204515 | 54 | 291 | 0.0 | 1.7 | 0.00 | 0.89 | 0.17 | 53 | 1014.8 |
| 20260506204014 | 54 | 340 | 0.0 | 1.7 | 0.00 | 0.89 | 0.17 | 54 | 1014.9 |
| 20260506203514 | 54 | 316 | 0.0 | 1.7 | 0.00 | 0.89 | 0.17 | 53 | 1014.7 |
| 20260506203014 | 54 | 272 | 0.0 | 6.1 | 0.00 | 0.89 | 0.17 | 54 | 1014.7 |
| 20260506202519 | 55 | 328 | 0.0 | 7.8 | 0.00 | 0.89 | 0.17 | 54 | 1014.6 |
| 20260506202013 | 55 | 329 | 0.0 | 7.0 | 0.00 | 0.89 | 0.17 | 52 | 1014.6 |
| 20260506201519 | 55 | 274 | 0.0 | 2.6 | 0.00 | 0.89 | 0.17 | 56 | 1014.5 |
| 20260506201014 | 54 | 348 | 0.0 | 7.0 | 0.00 | 0.89 | 0.17 | 58 | 1014.6 |
| 20260506200514 | 54 | 322 | 0.9 | 7.0 | 0.00 | 0.89 | 0.17 | 57 | 1014.5 |
| 20260506200013 | 54 | 306 | 0.0 | 4.3 | 0.00 | 0.89 | 0.17 | 56 | 1014.5 |
| 20260506195512 | 54 | 332 | 0.0 | 4.3 | 0.00 | 0.89 | 0.17 | 56 | 1014.7 |
| 20260506195012 | 54 | 349 | 0.0 | 1.7 | 0.00 | 0.89 | 0.17 | 59 | 1014.6 |
| 20260506194516 | 54 | 328 | 0.0 | 0.0 | 0.00 | 0.89 | 0.17 | 59 | 1014.7 |
| 20260506194016 | 54 | 331 | 0.0 | 2.6 | 0.00 | 0.89 | 0.17 | 55 | 1014.8 |
| 20260506193511 | 54 | 315 | 0.0 | 2.6 | 0.00 | 0.89 | 0.17 | 57 | 1014.8 |
| 20260506193021 | 54 | 279 | 0.0 | 0.9 | 0.00 | 0.89 | 0.17 | 54 | 1014.9 |
| 20260506192511 | 54 | 360 | 0.0 | 0.9 | 0.00 | 0.89 | 0.17 | 56 | 1014.6 |
| 20260506192010 | 54 | 303 | 0.0 | 7.0 | 0.00 | 0.89 | 0.17 | 52 | 1014.8 |
| 20260506191512 | 54 | 288 | 0.0 | 7.0 | 0.00 | 0.89 | 0.17 | 53 | 1014.6 |
| 20260506191010 | 54 | 346 | 0.0 | 2.6 | 0.00 | 0.89 | 0.17 | 57 | 1014.6 |
| 20260506190511 | 54 | 329 | 0.0 | 2.6 | 0.00 | 0.89 | 0.17 | 60 | 1014.6 |
| 20260506190012 | 54 | 304 | 0.0 | 1.7 | 0.00 | 0.89 | 0.17 | 55 | 1014.6 |
| 20260506185512 | 54 | 321 | 0.0 | 8.7 | 0.00 | 0.92 | 0.17 | 56 | 1014.6 |
| 20260506185010 | 54 | 346 | 0.0 | 8.7 | 0.00 | 0.92 | 0.17 | 55 | 1014.5 |
| 20260506184609 | 54 | 320 | 0.0 | 0.0 | 0.00 | 0.92 | 0.17 | 58 | 1014.5 |
| 20260506184009 | 54 | 323 | 0.0 | 0.9 | 0.00 | 0.92 | 0.17 | 57 | 1014.5 |
| 20260506183510 | 54 | 308 | 0.0 | 7.0 | 0.00 | 0.92 | 0.17 | 56 | 1014.5 |
| 20260506183008 | 54 | 334 | 0.0 | 7.0 | 0.00 | 0.92 | 0.17 | 57 | 1014.4 |
| 20260506182511 | 54 | 355 | 0.0 | 2.6 | 0.00 | 0.92 | 0.17 | 57 | 1014.6 |
| 20260506182007 | 54 | 340 | 0.0 | 1.7 | 0.00 | 0.92 | 0.17 | 57 | 1014.6 |
| 20260506181510 | 55 | 348 | 0.0 | 9.6 | 0.00 | 0.92 | 0.17 | 62 | 1014.6 |
| 20260506181007 | 54 | 348 | 0.0 | 7.8 | 0.00 | 0.92 | 0.17 | 61 | 1014.7 |
| 20260506180507 | 54 | 308 | 0.0 | 12.2 | 0.00 | 0.92 | 0.17 | 56 | 1014.8 |
| 20260506180009 | 55 | 320 | 1.7 | 12.2 | 0.00 | 0.92 | 0.17 | 56 | 1014.7 |
| 20260506175505 | 55 | 16 | 0.0 | 11.3 | 0.00 | 0.92 | 0.17 | 58 | 1014.6 |
| 20260506175006 | 55 | 350 | 5.2 | 12.2 | 0.00 | 0.92 | 0.17 | 58 | 1014.5 |
| 20260506174504 | 55 | 338 | 0.0 | 12.2 | 0.00 | 0.92 | 0.17 | 57 | 1014.6 |
| 20260506174004 | 56 | 22 | 0.0 | 11.3 | 0.00 | 0.92 | 0.17 | 58 | 1014.4 |
| 20260506173506 | 56 | 340 | 1.7 | 12.2 | 0.00 | 0.92 | 0.17 | 60 | 1014.4 |
| 20260506173003 | 56 | 333 | 1.7 | 12.2 | 0.00 | 0.92 | 0.17 | 61 | 1014.2 |
| 20260506172502 | 55 | 9 | 0.0 | 5.2 | 0.00 | 0.92 | 0.17 | 61 | 1014.4 |
| 20260506172002 | 55 | 360 | 0.0 | 5.2 | 0.00 | 0.92 | 0.17 | 61 | 1014.5 |
| 20260506171600 | 55 | 22 | 0.0 | 4.3 | 0.00 | 0.92 | 0.17 | 64 | 1014.5 |
| 20260506171059 | 54 | 321 | 0.0 | 0.0 | 0.00 | 0.92 | 0.17 | 62 | 1014.6 |
| 20260506170600 | 55 | 314 | 0.0 | 4.3 | 0.00 | 0.92 | 0.17 | 61 | 1014.5 |
| 20260506170109 | 55 | 329 | 0.0 | 4.3 | 0.00 | 0.92 | 0.17 | 60 | 1014.4 |
| 20260506165559 | 55 | 355 | 0.0 | 2.6 | 0.00 | 0.92 | 0.17 | 58 | 1014.5 |
| 20260506165101 | 54 | 319 | 0.0 | 8.7 | 0.00 | 0.92 | 0.17 | 62 | 1014.3 |
| 20260506164625 | 54 | 325 | 0.0 | 9.6 | 0.00 | 0.92 | 0.17 | 61 | 1014.3 |
| 20260506164058 | 55 | 321 | 0.0 | 10.4 | 0.00 | 0.92 | 0.17 | 62 | 1014.4 |
| 20260506163600 | 55 | 327 | 1.7 | 10.4 | 0.00 | 0.92 | 0.17 | 64 | 1014.5 |
| 20260506163106 | 55 | 360 | 0.0 | 12.2 | 0.00 | 0.92 | 0.17 | 65 | 1014.4 |
| 20260506162555 | 55 | 355 | 2.6 | 12.2 | 0.00 | 0.92 | 0.17 | 64 | 1014.3 |
| 20260506162055 | 55 | 29 | 0.9 | 10.4 | 0.00 | 0.92 | 0.17 | 68 | 1014.1 |
| 20260506161554 | 54 | 342 | 4.3 | 11.3 | 0.00 | 0.92 | 0.17 | 63 | 1014.1 |
| 20260506161058 | 54 | 355 | 0.0 | 11.3 | 0.00 | 0.92 | 0.17 | 63 | 1014.2 |
| 20260506160553 | 54 | 342 | 3.5 | 13.9 | 0.00 | 0.92 | 0.17 | 66 | 1014.4 |
| 20260506160059 | 54 | 321 | 2.6 | 13.9 | 0.00 | 0.92 | 0.17 | 64 | 1014.4 |
| 20260506155553 | 54 | 321 | 0.9 | 9.6 | 0.00 | 0.92 | 0.17 | 65 | 1014.4 |
| 20260506155050 | 54 | 355 | 0.0 | 12.2 | 0.00 | 0.92 | 0.17 | 71 | 1014.4 |
| 20260506154553 | 54 | 355 | 3.5 | 12.2 | 0.00 | 0.92 | 0.17 | 70 | 1014.4 |
| 20260506154048 | 53 | 9 | 0.9 | 11.3 | 0.00 | 0.92 | 0.17 | 67 | 1014.1 |
| 20260506153549 | 53 | 12 | 1.7 | 11.3 | 0.00 | 0.92 | 0.17 | 70 | 1014.1 |
| 20260506153044 | 53 | 337 | 2.6 | 7.8 | 0.00 | 0.92 | 0.17 | 69 | 1013.9 |
| 20260506152543 | 52 | 335 | 0.0 | 9.6 | 0.00 | 0.92 | 0.17 | 69 | 1013.7 |
| 20260506152045 | 53 | 304 | 5.2 | 9.6 | 0.00 | 0.92 | 0.17 | 71 | 1013.5 |
| 20260506151543 | 52 | 9 | 4.3 | 10.4 | 0.00 | 0.92 | 0.17 | 74 | 1013.6 |
| 20260506151039 | 52 | 11 | 7.0 | 10.4 | 0.00 | 0.92 | 0.17 | 73 | 1013.6 |
| 20260506150539 | 51 | 360 | 0.0 | 7.8 | 0.00 | 0.92 | 0.17 | 75 | 1013.6 |
| 20260506150043 | 51 | 312 | 2.6 | 8.7 | 0.00 | 0.92 | 0.17 | 72 | 1013.5 |
| 20260506145537 | 51 | 355 | 3.5 | 8.7 | 0.00 | 0.92 | 0.17 | 74 | 1013.6 |
| 20260506145036 | 51 | 355 | 3.5 | 9.6 | 0.00 | 0.92 | 0.17 | 74 | 1013.7 |
| 20260506144536 | 50 | 323 | 5.2 | 11.3 | 0.00 | 0.92 | 0.17 | 76 | 1013.5 |
| 20260506144035 | 51 | 314 | 3.5 | 11.3 | 0.00 | 0.92 | 0.17 | 76 | 1013.6 |
| 20260506143533 | 51 | 317 | 4.3 | 8.7 | 0.00 | 0.92 | 0.17 | 78 | 1013.5 |
| 20260506143037 | 50 | 332 | 4.3 | 9.6 | 0.00 | 0.92 | 0.17 | 78 | 1013.4 |
| 20260506142530 | 49 | 327 | 1.7 | 9.6 | 0.00 | 0.92 | 0.17 | 77 | 1013.5 |
| 20260506142028 | 49 | 341 | 3.5 | 7.8 | 0.00 | 0.92 | 0.17 | 76 | 1013.5 |
| 20260506141533 | 49 | 341 | 2.6 | 8.7 | 0.00 | 0.92 | 0.17 | 77 | 1013.2 |
| 20260506141028 | 49 | 315 | 5.2 | 11.3 | 0.00 | 0.92 | 0.17 | 78 | 1013.3 |
| 20260506140528 | 48 | 329 | 3.5 | 11.3 | 0.00 | 0.92 | 0.17 | 78 | 1013.0 |
| 20260506140026 | 48 | 355 | 6.1 | 9.6 | 0.00 | 0.92 | 0.17 | 78 | 1013.1 |
| 20260506135523 | 48 | 279 | 5.2 | 9.6 | 0.00 | 0.92 | 0.17 | 77 | 1013.0 |
| 20260506135022 | 48 | 305 | 4.3 | 9.6 | 0.00 | 0.92 | 0.17 | 80 | 1012.9 |
| 20260506134521 | 47 | 338 | 6.1 | 9.6 | 0.00 | 0.92 | 0.17 | 80 | 1012.9 |
| 20260506134020 | 47 | 350 | 3.5 | 7.8 | 0.00 | 0.92 | 0.17 | 83 | 1012.8 |
| 20260506133518 | 46 | 336 | 5.2 | 8.7 | 0.00 | 0.92 | 0.17 | 83 | 1012.7 |
| 20260506133018 | 46 | 360 | 4.3 | 8.7 | 0.00 | 0.92 | 0.17 | 83 | 1012.8 |
| 20260506132519 | 46 | 331 | 7.0 | 8.7 | 0.00 | 0.92 | 0.17 | 84 | 1012.7 |
| 20260506132015 | 46 | 334 | 3.5 | 7.0 | 0.00 | 0.92 | 0.17 | 85 | 1012.9 |
| 20260506131515 | 45 | 339 | 2.6 | 7.0 | 0.00 | 0.92 | 0.17 | 86 | 1012.9 |
| 20260506131017 | 45 | 312 | 0.0 | 0.0 | 0.00 | 0.92 | 0.17 | 86 | 1012.9 |
| 20260506130514 | 45 | 355 | 0.0 | 0.0 | 0.00 | 0.92 | 0.17 | 87 | 1012.8 |
| 20260506130013 | 45 | 323 | 0.0 | 0.0 | 0.00 | 0.92 | 0.17 | 86 | 1012.7 |
| 20260506125516 | 45 | 327 | 0.0 | 0.0 | 0.00 | 0.92 | 0.17 | 87 | 1012.7 |
| 20260506125010 | 45 | 350 | 0.0 | 0.0 | 0.00 | 0.92 | 0.17 | 87 | 1012.6 |
| 20260506124510 | 45 | 327 | 0.0 | 0.0 | 0.00 | 0.92 | 0.17 | 87 | 1012.6 |
| 20260506124009 | 44 | 304 | 0.0 | 0.0 | 0.00 | 0.92 | 0.17 | 88 | 1012.6 |
| 20260506123508 | 44 | 355 | 0.0 | 0.0 | 0.00 | 0.92 | 0.17 | 88 | 1012.3 |
| 20260506123007 | 44 | 5 | 0.0 | 0.0 | 0.00 | 0.92 | 0.17 | 88 | 1012.2 |
| 20260506122506 | 44 | 340 | 0.0 | 0.0 | 0.00 | 0.92 | 0.17 | 89 | 1012.2 |
| 20260506122007 | 44 | 355 | 0.0 | 0.0 | 0.00 | 0.92 | 0.17 | 89 | 1012.1 |
| 20260506121508 | 44 | 350 | 0.0 | 0.0 | 0.00 | 0.92 | 0.17 | 89 | 1012.2 |
| 20260506121004 | 44 | 323 | 0.0 | 0.0 | 0.00 | 0.92 | 0.17 | 89 | 1012.1 |
| 20260506120502 | 44 | 344 | 0.0 | 0.0 | 0.00 | 0.92 | 0.17 | 89 | 1011.9 |
| 20260506120001 | 44 | 355 | 0.0 | 5.2 | 0.00 | 0.92 | 0.17 | 89 | 1011.9 |
| 20260506115503 | 44 | 336 | 3.5 | 7.0 | 0.00 | 0.92 | 0.17 | 89 | 1011.9 |
| 20260506115000 | 44 | 347 | 3.5 | 7.0 | 0.00 | 0.92 | 0.17 | 89 | 1011.7 |
| 20260506114600 | 44 | 355 | 4.3 | 7.0 | 0.00 | 0.92 | 0.17 | 90 | 1011.7 |
| 20260506114103 | 44 | 344 | 0.9 | 4.3 | 0.00 | 0.92 | 0.17 | 90 | 1011.5 |
| 20260506113558 | 44 | 351 | 0.0 | 3.5 | 0.00 | 0.92 | 0.17 | 90 | 1011.4 |
| 20260506113057 | 44 | 344 | 0.0 | 3.5 | 0.00 | 0.92 | 0.17 | 90 | 1011.1 |
| 20260506112556 | 44 | 336 | 0.0 | 0.9 | 0.00 | 0.92 | 0.17 | 90 | 1011.0 |
| 20260506112054 | 43 | 5 | 0.0 | 8.7 | 0.00 | 0.92 | 0.17 | 90 | 1010.6 |
| 20260506111553 | 43 | 355 | 0.0 | 8.7 | 0.00 | 0.92 | 0.17 | 91 | 1010.7 |
| 20260506111053 | 43 | 360 | 6.1 | 8.7 | 0.00 | 0.92 | 0.17 | 91 | 1010.6 |
| 20260506110552 | 43 | 360 | 1.7 | 7.0 | 0.00 | 0.92 | 0.17 | 91 | 1010.8 |
| 20260506110101 | 43 | 355 | 0.0 | 0.0 | 0.00 | 0.92 | 0.17 | 91 | 1010.8 |
| 20260506105551 | 43 | 5 | 0.0 | 7.8 | 0.00 | 0.93 | 0.17 | 91 | 1010.6 |
| 20260506105050 | 43 | 24 | 1.7 | 7.8 | 0.00 | 0.93 | 0.17 | 91 | 1010.6 |
| 20260506104603 | 43 | 5 | 0.0 | 7.0 | 0.00 | 0.93 | 0.17 | 91 | 1010.8 |
| 20260506104050 | 43 | 9 | 0.0 | 0.0 | 0.00 | 0.93 | 0.17 | 91 | 1010.7 |
| 20260506103549 | 43 | 360 | 0.0 | 8.7 | 0.00 | 0.93 | 0.17 | 92 | 1010.8 |
| 20260506103050 | 43 | 340 | 0.0 | 8.7 | 0.00 | 0.93 | 0.17 | 92 | 1010.7 |
| 20260506102551 | 43 | 360 | 1.7 | 8.7 | 0.00 | 0.93 | 0.17 | 92 | 1010.3 |
| 20260506102052 | 43 | 348 | 3.5 | 10.4 | 0.00 | 0.93 | 0.17 | 92 | 1010.0 |
| 20260506101549 | 43 | 20 | 6.1 | 10.4 | 0.00 | 0.93 | 0.17 | 92 | 1010.0 |
| 20260506101047 | 43 | 355 | 0.9 | 12.2 | 0.00 | 0.93 | 0.17 | 93 | 1010.0 |
| 20260506100546 | 43 | 355 | 0.0 | 12.2 | 0.00 | 0.93 | 0.17 | 93 | 1010.3 |
| 20260506100053 | 43 | 346 | 1.7 | 9.6 | 0.00 | 0.93 | 0.17 | 93 | 1010.5 |
| 20260506095545 | 43 | 345 | 0.0 | 10.4 | 0.00 | 0.95 | 0.17 | 94 | 1010.2 |
| 20260506095044 | 43 | 351 | 0.0 | 10.4 | 0.00 | 0.95 | 0.17 | 94 | 1009.9 |
| 20260506094544 | 44 | 355 | 6.1 | 11.3 | 0.01 | 0.95 | 0.17 | 94 | 1009.9 |
| 20260506094045 | 44 | 344 | 7.0 | 12.2 | 0.01 | 0.95 | 0.17 | 94 | 1009.8 |
| 20260506093543 | 44 | 333 | 8.7 | 10.4 | 0.01 | 0.95 | 0.17 | 94 | 1009.5 |
| 20260506093042 | 44 | 5 | 6.1 | 10.4 | 0.01 | 0.95 | 0.17 | 94 | 1009.2 |
| 20260506092542 | 44 | 355 | 7.0 | 9.6 | 0.01 | 0.95 | 0.17 | 94 | 1009.2 |
| 20260506092045 | 44 | 355 | 0.9 | 7.8 | 0.01 | 0.95 | 0.17 | 94 | 1009.6 |
| 20260506091542 | 44 | 355 | 0.0 | 0.0 | 0.01 | 0.95 | 0.17 | 94 | 1009.6 |
| 20260506091043 | 44 | 5 | 0.0 | 0.0 | 0.01 | 0.95 | 0.17 | 94 | 1009.1 |
| 20260506090541 | 44 | 5 | 0.0 | 0.0 | 0.01 | 0.95 | 0.17 | 93 | 1009.1 |
| 20260506090042 | 44 | 30 | 0.0 | 0.0 | 0.01 | 0.95 | 0.17 | 93 | 1008.7 |
| 20260506085541 | 44 | 33 | 0.0 | 5.2 | 0.01 | 0.95 | 0.17 | 93 | 1008.8 |
| 20260506085041 | 44 | 15 | 0.9 | 5.2 | 0.01 | 0.95 | 0.17 | 93 | 1009.1 |
| 20260506084612 | 44 | 24 | 0.0 | 1.7 | 0.00 | 0.94 | 0.16 | 93 | 1009.3 |
| 20260506084040 | 44 | 15 | 0.0 | 8.7 | 0.00 | 0.94 | 0.16 | 93 | 1009.6 |
| 20260506083539 | 44 | 5 | 4.3 | 8.7 | 0.00 | 0.94 | 0.16 | 93 | 1009.7 |
| 20260506083040 | 44 | 15 | 5.2 | 9.6 | 0.00 | 0.94 | 0.16 | 93 | 1009.6 |
| 20260506082541 | 44 | 13 | 6.1 | 9.6 | 0.00 | 0.94 | 0.16 | 93 | 1009.7 |
| 20260506082039 | 44 | 360 | 6.1 | 9.6 | 0.00 | 0.94 | 0.16 | 93 | 1009.6 |
| 20260506081550 | 44 | 355 | 5.2 | 9.6 | 0.01 | 0.94 | 0.16 | 94 | 1009.6 |
| 20260506081038 | 44 | 17 | 6.1 | 9.6 | 0.01 | 0.94 | 0.16 | 94 | 1009.5 |
| 20260506080539 | 44 | 13 | 7.8 | 11.3 | 0.01 | 0.94 | 0.16 | 94 | 1009.6 |
| 20260506073038 | 44 | 348 | 7.0 | 11.3 | 0.04 | 0.94 | 0.16 | 95 | 1009.2 |
| 20260506072537 | 44 | 347 | 7.0 | 14.8 | 0.05 | 0.94 | 0.16 | 95 | 1009.2 |
| 20260506072037 | 44 | 5 | 9.6 | 14.8 | 0.05 | 0.94 | 0.16 | 95 | 1008.7 |
| 20260506071536 | 44 | 360 | 7.8 | 13.0 | 0.05 | 0.93 | 0.15 | 95 | 1009.2 |
| 20260506071034 | 44 | 360 | 9.6 | 13.0 | 0.05 | 0.93 | 0.15 | 95 | 1009.0 |
| 20260506070533 | 44 | 351 | 8.7 | 13.0 | 0.05 | 0.93 | 0.15 | 95 | 1009.3 |
| 20260506062028 | 45 | 332 | 0.9 | 7.0 | 0.06 | 0.94 | 0.11 | 95 | 1009.4 |
| 20260506061529 | 45 | 329 | 0.0 | 0.9 | 0.06 | 0.93 | 0.10 | 95 | 1009.3 |
| 20260506061028 | 45 | 334 | 0.0 | 0.9 | 0.06 | 0.93 | 0.10 | 95 | 1008.9 |
| 20260506060530 | 45 | 360 | 0.0 | 0.0 | 0.05 | 0.92 | 0.09 | 95 | 1009.0 |
| 20260506051022 | 45 | 15 | 0.0 | 3.5 | 0.04 | 0.87 | 0.04 | 95 | 1009.5 |
| 20260506050522 | 45 | 28 | 0.0 | 0.9 | 0.04 | 0.87 | 0.04 | 95 | 1009.4 |
| 20260506045020 | 45 | 16 | 0.0 | 8.7 | 0.03 | 0.86 | 0.03 | 94 | 1009.1 |
| 20260506044521 | 45 | 24 | 1.7 | 8.7 | 0.02 | 0.85 | 0.02 | 94 | 1009.2 |
| 20260506044019 | 45 | 360 | 0.0 | 0.9 | 0.02 | 0.84 | 0.01 | 94 | 1009.6 |
| 20260506043521 | 45 | 17 | 0.0 | 1.7 | 0.02 | 0.84 | 0.01 | 94 | 1009.7 |
| 20260506043019 | 45 | 20 | 0.0 | 1.7 | 0.02 | 0.84 | 0.01 | 94 | 1009.7 |
| 20260506042518 | 46 | 350 | 0.0 | 3.5 | 0.01 | 0.83 | 0.00 | 94 | 1009.8 |
| 20260506042017 | 46 | 15 | 0.0 | 7.8 | 0.01 | 0.83 | 0.00 | 94 | 1009.9 |
| 20260506041516 | 46 | 5 | 0.9 | 9.6 | 0.01 | 0.83 | 0.00 | 94 | 1009.7 |
| 20260506041016 | 46 | 15 | 0.0 | 9.6 | 0.01 | 0.83 | 0.00 | 94 | 1009.4 |
| 20260506040515 | 46 | 16 | 0.0 | 9.6 | 0.02 | 0.83 | 0.00 | 94 | 1009.3 |
| 20260506040013 | 46 | 34 | 5.2 | 9.6 | 0.02 | 0.83 | 0.00 | 94 | 1009.2 |
| 20260506035512 | 46 | 27 | 4.3 | 11.3 | 0.03 | 0.83 | 0.83 | 94 | 1009.2 |
| 20260506035012 | 46 | 42 | 1.7 | 11.3 | 0.03 | 0.83 | 0.83 | 94 | 1009.3 |
| 20260506034511 | 46 | 33 | 0.0 | 0.0 | 0.03 | 0.83 | 0.83 | 94 | 1009.1 |
| 20260506034010 | 46 | 53 | 0.0 | 3.5 | 0.03 | 0.82 | 0.82 | 94 | 1009.3 |
| 20260506033511 | 46 | 53 | 0.0 | 3.5 | 0.04 | 0.82 | 0.82 | 95 | 1009.2 |
| 20260506033009 | 47 | 61 | 0.0 | 3.5 | 0.04 | 0.82 | 0.82 | 94 | 1009.2 |
| 20260506032509 | 47 | 40 | 0.0 | 0.0 | 0.04 | 0.82 | 0.82 | 95 | 1009.2 |
| 20260506032010 | 47 | 45 | 0.0 | 0.0 | 0.05 | 0.82 | 0.82 | 95 | 1009.1 |
| 20260506031509 | 47 | 40 | 0.0 | 4.3 | 0.05 | 0.82 | 0.82 | 95 | 1009.1 |
| 20260506031009 | 47 | 42 | 0.0 | 4.3 | 0.06 | 0.82 | 0.82 | 94 | 1009.4 |
| 20260506030512 | 47 | 19 | 0.0 | 0.9 | 0.05 | 0.81 | 0.81 | 94 | 1009.4 |
| 20260506030008 | 47 | 24 | 0.0 | 1.7 | 0.06 | 0.81 | 0.81 | 94 | 1009.5 |
| 20260506025507 | 47 | 21 | 0.0 | 1.7 | 0.06 | 0.80 | 0.80 | 95 | 1009.7 |
| 20260506025012 | 47 | 12 | 0.0 | 2.6 | 0.07 | 0.80 | 0.80 | 95 | 1009.8 |
| 20260506024507 | 47 | 5 | 0.0 | 7.8 | 0.07 | 0.79 | 0.79 | 94 | 1009.9 |
| 20260506024008 | 47 | 349 | 0.0 | 7.8 | 0.07 | 0.79 | 0.79 | 94 | 1010.0 |
| 20260506023507 | 47 | 16 | 0.0 | 4.3 | 0.07 | 0.78 | 0.78 | 94 | 1010.0 |